Wind_Speed
23 19 16 12 12 12 12 14 15 14 15 15 15 19 22 25 26 27 27 29 29 31
24 21 16 12 12 13 15 16 16 16 17 17 19 21 25 27 29 28 28 29 31 32
25 21 17 13 14 15 16 16 17 17 17 19 23 26 25 27 29 31 30 30 31 32
25 20 18 15 15 16 16 17 17 18 19 23 24 24 26 31 30 30 30 30 30 33
23 21 19 18 17 17 17 18 18 18 21 22 23 26 29 29 27 30 31 30 29 32
24 24 21 20 19 17 18 18 17 18 20 22 25 28 31 28 29 27 28 28 30 32
27 25 22 20 19 18 17 16 16 17 20 25 29 32 28 28 27 29 29 29 29 31
27 25 22 21 19 18 16 16 17 19 24 28 29 27 27 26 27 28 30 30 31 31
28 25 23 21 19 17 17 17 19 22 26 26 25 24 24 24 27 28 29 31 32 32
27 26 24 20 18 18 18 18 21 25 22 22 25 22 22 23 25 26 28 30 33 32
28 26 21 20 19 19 19 20 23 21 21 23 25 21 24 21 23 30 32 31 29 32
28 24 22 21 20 18 19 21 20 19 21 25 24 22 25 23 30 33 28 27 26 28
27 23 21 21 18 17 19 18 17 20 23 24 25 24 27 29 29 27 27 28 28 31
24 21 20 17 17 18 17 17 19 20 22 27 24 27 34 24 21 23 26 28 29 31
Wind_Direction
239 246 250 254 260 268 273 282 289 293 303 299 310 311 311 310 309 307 303 303 304 301
239 242 246 252 262 267 269 277 286 294 294 299 306 305 306 307 308 307 303 297 300 299
239 238 240 249 262 267 267 274 284 286 291 297 300 302 302 305 304 303 302 300 300 301
231 232 238 250 264 267 267 279 282 288 293 297 299 303 307 306 305 303 305 303 301 302
227 231 238 249 265 266 273 281 284 290 296 299 305 309 308 309 307 303 304 304 303 305
224 230 240 248 264 267 275 280 287 295 297 306 307 306 307 305 306 305 304 303 305 305
223 231 241 250 262 267 275 282 292 297 304 305 305 305 306 308 307 307 306 306 307 308
226 232 239 250 259 267 277 285 291 297 303 304 304 308 312 311 308 308 309 309 310 311
222 230 238 250 258 269 276 282 288 297 301 303 310 312 309 309 308 309 309 310 311 309
224 227 236 249 254 265 273 281 292 298 302 310 314 310 312 310 309 306 304 304 304 309
219 225 238 243 256 264 272 282 294 299 310 312 313 312 315 313 307 304 307 309 308 305
217 226 237 245 257 263 274 288 296 304 309 313 314 315 316 314 311 313 317 318 316 315
218 230 237 250 253 267 283 292 302 303 309 312 312 316 318 315 311 310 315 314 314 312
221 231 242 245 259 278 288 297 298 302 306 312 315 317 319 316 314 311 311 311 314 318
Height
1494 1497 1498 1500 1500 1500 1501 1501 1501 1500 1499 1498 1497 1496 1495 1493 1491 1489 1486 1484 1482 1480
1488 1491 1493 1495 1495 1496 1496 1497 1496 1495 1495 1493 1492 1491 1490 1487 1484 1482 1480 1477 1475 1472
1482 1485 1488 1489 1490 1491 1492 1492 1491 1490 1489 1488 1487 1485 1483 1480 1477 1474 1471 1469 1466 1464
1476 1479 1482 1484 1485 1486 1487 1486 1486 1485 1484 1482 1480 1479 1476 1473 1469 1466 1464 1462 1459 1455
1470 1474 1476 1478 1480 1481 1481 1481 1480 1479 1478 1476 1474 1472 1470 1466 1463 1460 1456 1454 1451 1447
1464 1467 1471 1473 1475 1476 1476 1475 1475 1474 1472 1470 1468 1465 1463 1459 1456 1452 1448 1445 1443 1439
1457 1462 1465 1468 1470 1470 1471 1470 1470 1469 1467 1464 1461 1458 1455 1452 1449 1446 1443 1439 1435 1431
1452 1457 1460 1463 1464 1465 1465 1465 1464 1463 1462 1459 1455 1452 1449 1446 1443 1439 1436 1432 1429 1425
1447 1451 1454 1457 1458 1459 1460 1460 1459 1457 1455 1452 1449 1446 1444 1440 1436 1432 1429 1425 1421 1417
1442 1445 1448 1450 1452 1453 1454 1454 1453 1451 1449 1446 1443 1440 1437 1434 1431 1427 1423 1418 1415 1410
1435 1439 1442 1444 1446 1447 1448 1448 1446 1445 1442 1440 1437 1434 1431 1428 1424 1420 1416 1412 1408 1404
1429 1433 1436 1438 1440 1442 1443 1442 1440 1439 1436 1434 1432 1429 1426 1423 1418 1414 1409 1406 1402 1399
1424 1427 1430 1433 1436 1437 1436 1435 1434 1433 1431 1429 1426 1424 1421 1417 1412 1408 1404 1401 1397 1394
1419 1422 1425 1428 1430 1430 1430 1429 1429 1427 1425 1423 1421 1418 1415 1410 1406 1403 1399 1397 1392 1388